Fayetteville, NC

11:19 AM EDT on October 19, 2017 (GMT -0400)
Fayetteville Regional-Grannis

Weather History for KFAY - July, 2012

Change the Weather History Date:

Monday, July 9, 2012

  Actual Average Record
Temperature  
Mean Temperature 88 °F 81 °F  
Max Temperature 100 °F 91 °F 103 °F (1977)
Min Temperature 75 °F 72 °F 55 °F (1984)
Degree Days  
Heating Degree Days 0 0  
Month to date heating degree days 0 0  
Since 1 June heating degree days 0 0  
Since 1 July heating degree days 0 0  
Cooling Degree Days 23 16  
Month to date cooling degree days 192 144  
Year to date cooling degree days 934 824  
Since 1 June cooling degree days 513 540  
Growing Degree Days 37 (Base 50)    
Moisture  
Dew Point 72 °F    
Average Humidity 71    
Maximum Humidity 100    
Minimum Humidity 42    
Precipitation  
Precipitation 0.17 in 0.17 in 3.76 in (1927)
Month to date precipitation 1.03 1.52  
Year to date precipitation 20.26 21.54  
Sea Level Pressure  
Sea Level Pressure 29.87 in    
Wind  
Wind Speed 7 mph (SW)    
Max Wind Speed 30 mph    
Max Gust Speed 39 mph    
Visibility 9 miles    
Events Rain , Thunderstorm    
T = Trace of Precipitation, MM = Missing Value Source: NWS Daily Summary

Daily Weather History Graph

Daily Weather History Graph

Search for Another Location

Airport or City:

Trip Planner

Search our weather history database for the weather conditions in past years. The results will help you decide how hot, cold, wet, or windy it might be!

Date:

Astronomy

Jul. 09, 2012 Rise Set
Actual Time 6:09 AM EDT 8:31 PM EDT
Civil Twilight 5:40 AM EDT 9:01 PM EDT
Nautical Twilight 5:04 AM EDT 9:37 PM EDT
Astronomical Twilight 4:24 AM EDT 10:16 PM EDT
Moon No Moon Rise 12:17 PM EDT (7/9)
Length of Visible Light 15h 20m
Length of Day
14h 22m
Waning Gibbous, 64% of the Moon is Illuminated
Jul 9
Waning Gibbous
Jul 10
Last Quarter
Jul 19
New
Jul 26
First Quarter
Aug 1
Full

Hourly Weather History & Observations

Time (EDT) Temp. Heat Index Dew Point Humidity Pressure Visibility Wind Dir Wind Speed Gust Speed Precip Events Conditions
12:53 AM 84.9 °F 89.4 °F 70.0 °F 61% 29.87 in 10.0 mi SSW 8.1 mph - N/A   Clear
1:53 AM 82.9 °F 87.0 °F 70.0 °F 65% 29.88 in 10.0 mi SW 9.2 mph - N/A   Clear
2:53 AM 81.0 °F 84.9 °F 71.1 °F 72% 29.86 in 10.0 mi SSW 6.9 mph - N/A   Clear
3:53 AM 80.6 °F 84.6 °F 71.6 °F 74% 29.88 in 10.0 mi SSW 5.8 mph - N/A   Clear
4:53 AM 80.1 °F 83.6 °F 71.1 °F 74% 29.85 in 10.0 mi SSW 9.2 mph - N/A   Clear
5:53 AM 79.0 °F - 71.1 °F 77% 29.86 in 10.0 mi SSW 5.8 mph - N/A   Clear
6:53 AM 79.0 °F - 71.1 °F 77% 29.86 in 10.0 mi SSW 6.9 mph - N/A   Clear
7:53 AM 82.9 °F 87.5 °F 71.1 °F 67% 29.86 in 10.0 mi SW 9.2 mph - N/A   Clear
8:53 AM 86.0 °F 90.7 °F 70.0 °F 59% 29.87 in 10.0 mi SW 12.7 mph - N/A   Clear
9:53 AM 89.1 °F 95.0 °F 71.1 °F 55% 29.88 in 10.0 mi SW 11.5 mph - N/A   Clear
10:53 AM 91.0 °F 97.6 °F 71.1 °F 52% 29.88 in 10.0 mi West 6.9 mph - N/A   Clear
11:53 AM 93.0 °F 100.1 °F 71.1 °F 49% 29.88 in 10.0 mi SSW 4.6 mph - N/A   Clear
12:53 PM 96.1 °F 103.5 °F 71.1 °F 44% 29.87 in 10.0 mi SW 6.9 mph - N/A   Clear
1:53 PM 97.0 °F 104.8 °F 71.1 °F 43% 29.85 in 10.0 mi Variable 3.5 mph - N/A   Partly Cloudy
2:53 PM 99.0 °F 107.0 °F 71.1 °F 40% 29.83 in 10.0 mi South 10.4 mph 16.1 mph N/A   Scattered Clouds
3:05 PM 98.6 °F 107.7 °F 71.6 °F 42% 29.84 in 10.0 mi South 12.7 mph 16.1 mph N/A Thunderstorm Scattered Clouds
3:46 PM 78.8 °F - 73.4 °F 83% 29.88 in 8.0 mi NNW 17.3 mph 26.5 mph 0.00 in Rain , Thunderstorm Light Thunderstorms and Rain
3:53 PM 78.1 °F - 73.9 °F 87% 29.89 in 7.0 mi NW 11.5 mph 21.9 mph 0.00 in Rain , Thunderstorm Light Thunderstorms and Rain
4:11 PM 77.0 °F - 73.4 °F 89% 29.87 in 2.0 mi North 16.1 mph 19.6 mph 0.14 in Rain , Thunderstorm Heavy Thunderstorms and Rain
4:20 PM 77.0 °F - 73.4 °F 89% 29.86 in 4.0 mi NNE 15.0 mph - 0.16 in Rain , Thunderstorm Light Rain
4:44 PM 78.8 °F - 73.4 °F 83% 29.86 in 9.0 mi North 3.5 mph - 0.16 in   Partly Cloudy
4:53 PM 79.0 °F - 73.9 °F 84% 29.83 in 10.0 mi Calm Calm - 0.16 in   Clear
5:53 PM 80.1 °F 84.5 °F 73.9 °F 81% 29.83 in 10.0 mi West 3.5 mph - N/A   Clear
6:53 PM 78.1 °F - 75.9 °F 93% 29.86 in 6.0 mi ESE 8.1 mph - 0.01 in   Scattered Clouds
7:53 PM 78.1 °F - 73.9 °F 87% 29.88 in 9.0 mi SSW 5.8 mph - N/A   Clear
8:53 PM 77.0 °F - 73.9 °F 90% 29.86 in 9.0 mi NNW 3.5 mph - N/A   Clear
9:53 PM 75.9 °F - 75.0 °F 97% 29.91 in 6.0 mi NNE 5.8 mph - N/A   Scattered Clouds
10:53 PM 75.0 °F - 73.9 °F 96% 29.94 in 6.0 mi NE 4.6 mph - 0.00 in   Mostly Cloudy
11:46 PM 78.8 °F - 73.4 °F 83% 29.98 in 8.0 mi Calm Calm - N/A   Overcast
11:53 PM 77.0 °F - 75.0 °F 94% 29.96 in 8.0 mi Calm Calm - N/A   Overcast